Regional Weather Roundup
Issued by NWS

Home | Current Version | Previous Version | Graphics & Text | Print | Product List | Glossary On
Versions: 1 2 3 4 5 6 7 8 9 10 11 12 13 14 15 16 17 18 19 20 21 22 23 24 25 26 27 28 29 30 31 32 33 34 35 36 37 38 39 40 41 42 43 44 45 46 47 48 49 50
000
ASUS43 KOAX 290710
RWRNE

WEATHER ROUNDUP FOR NEBRASKA
NATIONAL WEATHER SERVICE OMAHA NE
200 AM CDT TUE JUL 29 2014

NOTES: SATELLITE DATA IS BEING USED TO AUGMENT CLOUD COVER ABOVE
       12000 FEET.
       "FAIR" INDICATES FEW OR NO CLOUDS BELOW 12,000 FEET WITH NO
       SIGNIFICANT WEATHER AND/OR OBSTRUCTIONS TO VISIBILITY.

  * THESE STATIONS DO NOT REPORT WEATHER SUCH AS RAIN...SNOW OR FOG.

NEZ001>004-019>022-054>056-290800-
NEBRASKA PANHANDLE

CITY           SKY/WX    TMP DP  RH WIND       PRES   REMARKS
SCOTTSBLUFF    PTCLDY    67  60  78 E9        30.22S
ALLIANCE       PTCLDY    62  57  83 E9        30.23F
CHADRON        PTCLDY    63  53  70 NE8       30.23S
KIMBALL        PTCLDY    62  57  83 SW6       30.25F
SIDNEY         MOCLDY    62  52  69 S3        30.24F
$$

NEZ057>060-069>072-079>082-290800-
SOUTHWEST NEBRASKA

CITY           SKY/WX    TMP DP  RH WIND       PRES   REMARKS
NORTH PLATTE   CLEAR     59  57  93 E6        30.24S
IMPERIAL       MOCLDY    64  58  80 SE9       30.22F
LEXINGTON      CLEAR     64  59  82 SE7       30.24S
MCCOOK         MOCLDY    66  57  72 E9        30.22F
OGALLALA       CLEAR     62  57  84 E7        30.22F
$$

NEZ005>010-023>029-035>040-094-290800-
NORTH CENTRAL NEBRASKA

CITY           SKY/WX    TMP DP  RH WIND       PRES   REMARKS
VALENTINE      PTCLDY    59  51  75 E8        30.26R
AINSWORTH      PTCLDY    57  55  92 E6        30.26R
BROKEN BOW     CLOUDY    63  58  83 CALM      30.25R
O`NEILL        CLEAR     58  52  79 CALM      30.24F
ORD            PTCLDY    57  55  93 CALM      30.24R
THEDFORD       PTCLDY    61  55  82 CALM      30.26S
$$

NEZ041-046>049-061>064-073>077-083>087-290800-
SOUTH CENTRAL NEBRASKA

CITY           SKY/WX    TMP DP  RH WIND       PRES   REMARKS
GRAND ISLAND   CLOUDY    65  57  75 CALM      30.23S
AURORA         MOCLDY    60  59  97 CALM      30.23S
HASTINGS       PTCLDY    65  54  67 SE6       30.23S
HEBRON         MOCLDY    64  56  78 CALM      30.21S
HOLDREGE       MOCLDY    63  57  82 E6        30.24R
KEARNEY *      MOCLDY    63  57  82 E7        30.24F
YORK           PTCLDY    57  57 100 CALM      30.22S
$$

NEZ011>018-030>034-042>045-290800-
NORTHEAST NEBRASKA

CITY           SKY/WX    TMP DP  RH WIND       PRES   REMARKS
NORFOLK        CLEAR     57  53  86 CALM      30.22S
ALBION         CLEAR     56  52  87 CALM      30.23F
BLAIR          CLEAR     60  55  82 N3        30.20S
COLUMBUS *     CLEAR     55  48  76 CALM      30.21F
FREMONT        CLEAR     59  55  86 NW3       30.21S
TEKAMAH        CLEAR     58  53  84 N3        30.20S
WAYNE          CLEAR     55  53  95 CALM      30.23F
$$

NEZ050>053-065>068-078-088>093-290800-
SOUTHEAST NEBRASKA

CITY           SKY/WX    TMP DP  RH WIND       PRES   REMARKS
LINCOLN        CLEAR     64  54  69 NE6       30.19F
OMAHA EPPLEY   CLEAR     63  57  81 N5        30.20S
BEATRICE       CLEAR     55  52  89 CALM      30.20S
FALLS CITY     CLEAR     58  55  90 N5        30.18F
NEBRASKA CITY  CLEAR     61  55  81 N5        30.19F
PLATTSMOUTH    CLEAR     61  55  81 NW3       30.20S
$$

NEZ044-045-051>053-067-290800-
OMAHA AREA

CITY           SKY/WX    TMP DP  RH WIND       PRES   REMARKS
OMAHA EPPLEY   CLEAR     63  57  81 N5        30.20S
BLAIR          CLEAR     60  55  82 N3        30.20S
FREMONT        CLEAR     59  55  86 NW3       30.21S
MILLARD        CLEAR     61  57  87 CALM      30.19F
OFFUTT AFB     CLEAR     60  59  98 CALM      30.19S
PLATTSMOUTH    CLEAR     61  55  81 NW3       30.20S
WAHOO          FAIR      58  54  86 N6        30.20F
$$



USA.gov is the U.S. government's official web portal to all federal, state and local government web resources and services.